Regional Weather Roundup
Issued by NWS Grand Forks, ND

Home | Current Version | Previous Version | Graphics & Text | Print | Product List | Glossary On
Versions: 1 2 3 4 5 6 7 8 9 10 11 12 13 14 15 16 17 18 19 20 21 22 23 24 25 26 27 28 29 30 31 32 33 34 35 36 37 38 39 40 41 42 43 44 45 46 47 48 49 50
685
ASUS43 KFGF 250831
RWRFGF
PRAIRIE TO PINES  WEATHER ROUNDUP
NATIONAL WEATHER SERVICE EASTERN NORTH DAKOTA/GRAND FORKS ND
300 AM CDT MON JUL 25 2016

 **SATELLITE DATA USED TO AUGMENT SKY COVER AT AUTOMATED STATIONS**
 *****  WEATHER ACROSS EASTERN NORTH DAKOTA  *****

CITY           SKY/WX    TMP DP  RH WIND       PRES   REMARKS
GRAND FORKS    CLEAR     61  58  90 W6        29.97R
GRAND FRKS AFB CLEAR     63  59  86 W7        29.98R
GRAND FRKS NWS   N/A     61 N/A N/A W2          N/A
DEVILS LAKE    NOT AVBL
FARGO          CLEAR     62  57  83 CALM      30.00R
WAHPETON ARPT  SUNNY     59  55  88 CALM      30.02S
$$

 ***** WEATHER ACROSS CENTRAL AND WESTERN NORTH DAKOTA  *****

CITY           SKY/WX    TMP DP  RH WIND       PRES   REMARKS
BISMARCK       CLEAR     63  58  83 E5        30.03F
MINOT          CLEAR     65  60  84 CALM      30.02R
JAMESTOWN      CLEAR     61  59  93 CALM      30.03S
MINOT AFB      CLEAR     59  57  91 SW3       30.01S
GARRISON         N/A     61  57  87 E3        30.03S
WILLISTON      CLEAR     65  57  75 N6        29.99F
DICKINSON      CLEAR     57  52  83 S7        30.02F
HETTINGER      CLEAR     66  48  52 SE8       30.06F
$$

 *****  OTHER AIRPORT OBSERVATIONS IN OUR AREA  *****

CITY           SKY/WX    TMP DP  RH WIND       PRES   REMARKS
WALHALLA       FAIR      63  59  88 W5        29.97R
GRAFTON AIRPOR FAIR      63  63 100 W7        29.98S
VALLEY CITY AR   N/A     61  61 100 S3        30.05S
CANDO          FAIR      57  57 100 W6        30.04S
CAVALIER APRT  FAIR      63  59  88 W6        29.96S
GWINNER        FAIR      61  57  88 SW9       30.05R
SHEYENNE NWR     N/A     58  56  94 W3        29.95S
ROLLA          FAIR      55  55 100 W6        30.03S
 ***** THE ABOVE OBSERVATIONS ARE NON NWS ARE NOT QUALITY
       CONTROLLED AND MAY MIS-REPORT RAIN FOR SNOW...
$$

  *****  WEATHER ACROSS NORTHERN MINNESOTA  *****

CITY           SKY/WX    TMP DP  RH WIND       PRES   REMARKS
FLAG ISLAND    CLEAR     64  61  88 W8        29.92R
WARROAD        CLEAR     61  57  88 W3        29.95R
ROSEAU         CLEAR     64  57  77 CALM      29.95S
HALLOCK        CLEAR     63  61  94 CALM      29.95R
THF RVR FALLS  CLEAR     60  59  96 CALM      29.99R
BAUDETTE       CLEAR     60  58  92 W5        29.94R
WASKISH        CLEAR     66  63  88 NW8       29.96R
CROOKSTON      CLEAR     61  59  94 W6        29.98S
STEPHEN NDAWN    N/A    N/A N/A N/A W2          N/A
GREENBUSH NDAW   N/A     57  57 100 S3          N/A
$$
  *****  WEATHER ACROSS CENTRAL AND WEST MINNESOTA  *****

CITY           SKY/WX    TMP DP  RH WIND       PRES   REMARKS
FOSSTON        CLEAR     55  54  94 CALM      30.00R
BEMIDJI        CLEAR     61  59  94 W3        29.98R
PARK RAPIDS    CLEAR     60  56  86 W5        30.00R
ELBOW LAKE     FAIR      60  58  95 NW5       30.03S
WADENA         CLEAR     61  57  88 W3        30.01S
DETROIT LAKES  CLEAR     64  59  82 W5        30.02S
MOORHEAD       CLEAR     61  57  88 SW3       30.01S
FERGUS FALLS   CLEAR     61  59  94 W6        30.04R
MORRIS MN      CLEAR     63  59  88 W5        30.02S
STAPLES        CLEAR     63  57  82 W6        30.01R
$$
  *****  WEATHER ELSEWHERE ACROSS MINNESOTA  *****

CITY           SKY/WX    TMP DP  RH WIND       PRES   REMARKS
DULUTH         CLEAR     65  60  84 NW12      29.94R
INTRNTL FALLS  CLEAR     59  57  93 W3        29.92R
ELY            CLEAR     63  57  82 NW6       29.92S
CLOQUET        CLEAR     64  57  77 W6        29.96R
WHEATON        CLEAR     63  61  94 W3        30.05S
BRAINERD       CLEAR     66  59  78 W6        29.99R
HIBBING        CLEAR     61  58  90 NW6       29.95R
ALEXANDRIA     CLEAR     64  59  83 W6        30.04R
SAINT CLOUD    PTCLDY    63  60  90 W5        30.00R
MINNEAPOLIS    CLEAR     71  59  65 W6        30.01R
$$

  *****  WEATHER ACROSS SOUTH DAKOTA  *****

CITY           SKY/WX    TMP DP  RH WIND       PRES   REMARKS
SIOUX FALLS    CLEAR     64  58  80 CALM      30.08S
BROOKINGS      CLEAR     64  60  87 CALM      30.09
WATERTOWN      CLEAR     62  58  86 S5        30.08S
HURON          CLEAR     66  56  70 S6        30.06S
SISSETON         N/A     62  58  86 W5        30.02F
ABERDEEN       CLEAR     60  56  86 SW5       30.05S
MITCHELL       CLEAR     65  61  87 SW3       30.08F
PIERRE         CLEAR     67  53  61 SE8       30.05F
MOBRIDGE       CLEAR     69  58  67 S9        30.03S
RAPID CITY     CLEAR     68  51  54 S8        30.10F
$$

  *****  SOME WEATHER IN NEARBY STATES *****

CITY           SKY/WX    TMP DP  RH WIND       PRES   REMARKS
GLASGOW MT     CLEAR     62  51  67 E10       29.97F
GREAT FALLS MT CLEAR     56  42  59 SW5       30.05R
CHEYENNE WY    CLEAR     58  54  86 S17       30.28F
SCOTTSBLUFF NE CLEAR     60  55  83 E6        30.17F
OMAHA NE       MOCLDY    69  64  84 N9        30.04F
DES MOINES IA  PTCLDY    72  65  78 N7        30.03F
DAVENPORT IA   CLOUDY    69  66  90 NW5       30.01R
CHICAGO IL     CLOUDY    74  67  78 SW9       29.97S
EAU CLAIRE WI  CLEAR     66  63  90 SW5       29.98R
LA CROSSE WI   CLEAR     70  64  81 S3        29.99R
$$

  *****  SOME NATIONAL WEATHER *****

CITY           SKY/WX    TMP DP  RH WIND       PRES   REMARKS
LA GUARDIA NY  MOCLDY    83  64  52 S7        29.93S
RALEIGH NC     CLEAR     78  75  90 SW6       30.02S
ATLANTA GA     PTCLDY    78  70  76 CALM      30.03S
NEW ORLEANS LA MOCLDY    81  76  84 SE3       29.92F
OKLAHOMA CITY  PTCLDY    77  71  82 S3        29.96S
ALBUQUERQUE NM CLOUDY    72  56  57 E8        30.20F
SALT LAKE CITY CLEAR     74  41  30 S5        30.03S
LOS ANGELES CA MOCLDY    71  66  84 VRB5      29.92S
BOISE ID       CLEAR     69  35  28 SE8       29.96S
SEATTLE WA     CLEAR     67  55  65 NE12      30.03F
$$

*** WEATHER ACROSS MANITOBA...SASKATCHEWAN AND ONTARIO ***
                ***ONTARIO***

CITY           SKY/WX    TMP DP  RH WIND       PRES   REMARKS
GERALDTON      CLOUDY    64  61  88 W8        29.69R
THUNDER BAY    PTCLDY    66  59  77 W10       29.78R
SIOUX LOOKOUT  PTCLDY    59  57  94 NW6       29.85R
TORONTO        MOCLDY    75  70  83 N12G22    29.87R
BIG TROUT LK   CLOUDY    59  57  94 NW12G17   29.65R
PICKLE LAKE    NOT AVBL
DRYDEN         CLEAR     59  59 100 W9        29.88R
KENORA         CLEAR     61  59  94 W6        29.92R
$$
                *** MANITOBA***

CITY           SKY/WX    TMP DP  RH WIND       PRES   REMARKS
BRANDON        CLEAR     54  54 100 W6        29.98S
DAUPHIN        CLEAR     61  55  82 SW8       29.92S
ISLAND LAKE    PTCLDY    63  61  94 W5        29.79S
PILOT MOUND      N/A     55  54  94 W3          N/A
THE PAS        PTCLDY    64  57  77 SW8       29.78F
THOMPSON       PTCLDY    55  54  94 S3        29.74F
WINNIPEG       CLEAR     61  61 100 W6        29.92S
LYNN LAKE      PTCLDY    61  55  82 MISG      29.64F
CHURCHILL      FOG       43  43 100 SE10      29.75F VSB 1/4
GILLAM         FOG       52  50  93 E3        29.77S VSB 1/4
$$
                ***SASKATCHEWAN***

CITY           SKY/WX    TMP DP  RH WIND       PRES   REMARKS
ESTEVAN        CLEAR     59  57  94 SE7       30.02S
KINDERSLEY     PTCLDY    61  57  88 SE3       29.95S
LLOYDMINSTER   CLOUDY    59  57  94 W8        29.96R
PRINCE ALBERT  TSTM      61  57  88 NW14G32   29.92R
REGINA         CLEAR     57  55  94 S8        29.99F
YORKTON        CLEAR     63  55  77 SW10      29.95S
N. BATTLEFORD  CLOUDY    63  55  77 NW5       29.97R
LA RONGE       PTCLDY    63  54  72 W7        29.78R
SASKATOON      MOCLDY    61  57  88 SW8       29.94R
SWIFT CURRENT  CLEAR     59  57  94 SE9       29.96F
$$
NOTE: THESE ARE AUTOMATED STATIONS WITH LIMITED QUALITY CONTROL
      "FAIR" INDICATES FEW OR NO CLOUDS BELOW 12,000 FEET WITH NO
      SIGNIFICANT WEATHER AND/OR OBSTRUCTIONS TO VISIBILITY.
      SKY/WX - SKY CONDITION AND SIGNIFICANT WEATHER.
      TMP - AIR TEMPERATURE.    DP   - DEWPOINT TEMPERATURE.
      RH  - RELATIVE HUMIDITY.  PRES - PRESSURE.
      HX  - HEAT INDEX.         WCI  - WIND CHILL INDEX.
$




USA.gov is the U.S. government's official web portal to all federal, state and local government web resources and services.